TimeEST,TemperatureF,Dew PointF,Humidity,Sea Level PressureIn,VisibilityMPH,Wind Direction,Wind SpeedMPH,Gust SpeedMPH,PrecipitationIn,Events,Conditions,WindDirDegrees,DateUTC
1:54 AM,37.9,26.1,62,29.81,10.0,SW,4.6,-,N/A,,Clear,230,2013-01-20 06:54:00
3:54 AM,36.0,26.1,67,29.75,10.0,SSW,6.9,-,N/A,,Clear,200,2013-01-20 08:54:00
4:54 AM,33.1,25.0,72,29.72,10.0,SW,4.6,-,N/A,,Clear,230,2013-01-20 09:54:00
5:54 AM,32.0,25.0,75,29.69,10.0,SW,5.8,-,N/A,,Clear,220,2013-01-20 10:54:00
7:54 AM,37.0,25.0,62,29.69,10.0,SW,12.7,-,N/A,,Clear,220,2013-01-20 12:54:00
8:54 AM,39.0,26.1,60,29.68,10.0,SSW,17.3,21.9,N/A,,Clear,210,2013-01-20 13:54:00
9:54 AM,42.1,26.1,53,29.67,10.0,SSW,16.1,23.0,N/A,,Clear,200,2013-01-20 14:54:00
10:54 AM,44.1,27.0,51,29.66,10.0,SW,13.8,25.3,N/A,,Partly Cloudy,220,2013-01-20 15:54:00
11:54 AM,46.0,27.0,47,29.64,10.0,WSW,17.3,29.9,N/A,,Clear,250,2013-01-20 16:54:00
12:54 PM,50.0,18.0,28,29.64,10.0,West,18.4,27.6,N/A,,Clear,270,2013-01-20 17:54:00
1:54 PM,48.9,18.0,29,29.68,10.0,WNW,15.0,24.2,N/A,,Clear,300,2013-01-20 18:54:00
2:54 PM,46.9,17.1,30,29.72,10.0,NW,16.1,27.6,N/A,,Clear,310,2013-01-20 19:54:00
3:54 PM,43.0,16.0,34,29.78,10.0,NW,18.4,33.4,N/A,,Clear,310,2013-01-20 20:54:00
4:54 PM,37.9,12.9,36,29.85,10.0,NW,20.7,28.8,N/A,,Clear,310,2013-01-20 21:54:00
5:54 PM,35.1,10.9,37,29.89,10.0,WNW,10.4,23.0,N/A,,Clear,300,2013-01-20 22:54:00
6:54 PM,33.1,12.0,42,29.93,10.0,WNW,13.8,21.9,N/A,,Clear,300,2013-01-20 23:54:00
7:54 PM,30.9,12.0,46,29.97,10.0,WNW,8.1,-,N/A,,Clear,290,2013-01-21 00:54:00
8:54 PM,30.0,10.9,45,30.00,10.0,NW,15.0,19.6,N/A,,Clear,310,2013-01-21 01:54:00
9:54 PM,28.0,8.1,43,30.02,10.0,NW,10.4,16.1,N/A,,Clear,320,2013-01-21 02:54:00
10:54 PM,26.1,8.1,47,30.04,10.0,NW,11.5,16.1,N/A,,Partly Cloudy,310,2013-01-21 03:54:00
11:54 PM,26.1,6.1,43,30.04,10.0,WNW,11.5,18.4,N/A,,Clear,290,2013-01-21 04:54:00